M I D A S
Marine Information and Data Acquisition System
Tripno 2330 of the Zeeleeuw from 2012-06-15 05:49:47 to 2012-06-15 12:38:19
Back to CruiseResearch ActivitiesStationsMapUnderway DataData graphs

EquipmentUnitsComments
TimeDGPSUTC
LatitudeDGPSDM.mWGS84
LongitudeDGPSDM.mWGS84
SpeedMeteo Stationm/sRelative wind speed
DirectionMeteo StationdegRelative wind direction
TemperatureMeteo Stationdeg CelciusAir temperature
PressureMeteo StationPaAtmospheric pressure
HumidityMeteo Station%Relative humidity
Missing or incorrect values are displayed as -999
Metereological data collected by the RV Zeeleeuw from 2012-06-15 05:20:34 to 2012-06-15 12:57:41
Time Latitude Longitude Speed Direction Temperature Pressure Humidity
2012-06-15 05:21 51°13.632 2°56.013 -999 349 15 100960 51
2012-06-15 05:22 51°13.632 2°56.013 -999 359 15 100960 50
2012-06-15 05:23 51°13.632 2°56.015 -999 353 15 100960 51
2012-06-15 05:24 51°13.632 2°56.016 -999 352 15 100960 52
2012-06-15 05:25 51°13.633 2°56.014 -999 350 15 100950 52
2012-06-15 05:26 51°13.632 2°56.014 -999 359 15 100950 52
2012-06-15 05:27 51°13.632 2°56.014 -999 3 14.9 100950 52
2012-06-15 05:28 51°13.632 2°56.014 -999 357 14.9 100950 52
2012-06-15 05:29 51°13.632 2°56.015 -999 353 14.9 100950 52
2012-06-15 05:30 51°13.631 2°56.015 -999 1 14.9 100950 50
2012-06-15 05:31 51°13.632 2°56.015 -999 4 14.9 100950 52
2012-06-15 05:32 51°13.632 2°56.015 -999 2 14.9 100950 52
2012-06-15 05:33 51°13.632 2°56.014 -999 -999 14.9 100960 52
2012-06-15 05:34 51°13.632 2°56.015 -999 355 14.9 100960 52
2012-06-15 05:35 51°13.631 2°56.016 -999 5 14.8 100960 52
2012-06-15 05:36 51°13.633 2°56.015 -999 2 14.8 100960 52
2012-06-15 05:37 51°13.633 2°56.014 -999 359 14.8 100960 52
2012-06-15 05:38 51°13.632 2°56.014 -999 356 14.8 100950 51
2012-06-15 05:39 51°13.633 2°55.999 -999 17 14.8 100950 52
2012-06-15 05:40 51°13.651 2°55.912 0.1 38 14.8 100950 52
2012-06-15 05:41 51°13.684 2°55.818 0.1 17 14.8 100940 52
2012-06-15 05:42 51°13.737 2°55.748 0.1 9 14.8 100940 52
2012-06-15 05:43 51°13.8 2°55.674 0.3 13 14.8 100940 52
2012-06-15 05:44 51°13.87 2°55.616 0.7 334 14.7 100940 52
2012-06-15 05:45 51°13.93 2°55.599 -999 323 14.7 100950 52
2012-06-15 05:46 51°13.968 2°55.617 -999 24 14.8 100950 52
2012-06-15 05:47 51°13.995 2°55.548 -999 25 14.8 100960 52
2012-06-15 05:48 51°14.098 2°55.449 -999 247 14.8 100960 52
2012-06-15 05:49 51°14.235 2°55.326 -999 247 14.8 100960 52
2012-06-15 05:50 51°14.384 2°55.185 -999 316 14.8 100960 52
2012-06-15 05:51 51°14.538 2°55.025 -999 24 14.8 100960 52
2012-06-15 05:52 51°14.709 2°54.899 -999 252 14.8 100960 52
2012-06-15 05:53 51°14.858 2°54.71 -999 251 14.9 100960 52
2012-06-15 05:54 51°14.979 2°54.453 7.6 19 14.9 100970 53
2012-06-15 05:55 51°15.111 2°54.224 9.1 254 14.9 100970 53
2012-06-15 05:56 51°15.259 2°54.017 6.7 250 14.9 100980 53
2012-06-15 05:57 51°15.43 2°53.856 5.6 261 14.9 100970 53
2012-06-15 05:58 51°15.602 2°53.687 6.1 255 14.9 100980 52
2012-06-15 05:59 51°15.769 2°53.514 6.8 262 14.9 100980 52
2012-06-15 06:00 51°15.941 2°53.36 6.8 260 14.9 100970 52
2012-06-15 06:01 51°16.115 2°53.207 0.1 256 14.9 100970 53
2012-06-15 06:02 51°16.289 2°53.048 -999 258 14.9 100960 52
2012-06-15 06:03 51°16.458 2°52.885 3.1 262 14.9 100960 52
2012-06-15 06:04 51°16.635 2°52.75 3.3 267 14.9 100960 52
2012-06-15 06:05 51°16.807 2°52.611 -999 261 14.8 100960 52
2012-06-15 06:06 51°16.982 2°52.49 -999 270 14.8 100950 52
2012-06-15 06:07 51°17.166 2°52.414 -999 268 14.8 100960 53
2012-06-15 06:08 51°17.355 2°52.379 -999 25 14.8 100960 52
2012-06-15 06:09 51°17.545 2°52.357 -999 25 14.8 100970 52
2012-06-15 06:10 51°17.733 2°52.321 -999 265 14.8 100980 51
2012-06-15 06:11 51°17.921 2°52.261 -999 29 14.8 100970 52
2012-06-15 06:12 51°18.11 2°52.203 -999 264 14.8 100970 53
2012-06-15 06:13 51°18.3 2°52.146 -999 28 14.8 100970 52
2012-06-15 06:14 51°18.492 2°52.101 -999 266 14.8 100980 52
2012-06-15 06:15 51°18.682 2°52.049 -999 270 14.8 100970 52
2012-06-15 06:16 51°18.877 2°52.012 -999 21 14.8 100970 52
2012-06-15 06:17 51°19.068 2°51.945 -999 264 14.9 100970 52
2012-06-15 06:18 51°19.261 2°51.884 -999 25 14.9 100970 51
2012-06-15 06:19 51°19.454 2°51.829 -999 266 14.9 100980 52
2012-06-15 06:20 51°19.646 2°51.774 -999 267 14.9 100980 52
2012-06-15 06:21 51°19.839 2°51.721 -999 25 14.9 100980 52
2012-06-15 06:22 51°20.035 2°51.69 -999 267 14.9 100970 52
2012-06-15 06:23 51°20.231 2°51.673 -999 25 14.9 100960 52
2012-06-15 06:24 51°20.426 2°51.654 -999 265 14.9 100960 52
2012-06-15 06:25 51°20.623 2°51.639 -999 270 14.9 100960 52
2012-06-15 06:26 51°20.817 2°51.607 -999 260 14.9 100970 51
2012-06-15 06:27 51°21.012 2°51.57 -999 270 14.9 100970 52
2012-06-15 06:28 51°21.21 2°51.551 -999 25 14.9 100960 52
2012-06-15 06:29 51°21.408 2°51.546 -999 26 14.9 100960 52
2012-06-15 06:30 51°21.608 2°51.524 -999 30 14.9 100960 52
2012-06-15 06:31 51°21.807 2°51.493 -999 267 14.9 100950 52
2012-06-15 06:32 51°22.009 2°51.481 -999 26 14.9 100960 52
2012-06-15 06:33 51°22.206 2°51.457 -999 25 15 100950 52
2012-06-15 06:34 51°22.403 2°51.426 -999 26 15 100950 51
2012-06-15 06:35 51°22.599 2°51.402 -999 27 14.9 100950 52
2012-06-15 06:36 51°22.796 2°51.381 -999 25 15 100950 52
2012-06-15 06:37 51°22.994 2°51.352 -999 264 15 100940 52
2012-06-15 06:38 51°23.188 2°51.328 -999 26 15.1 100950 52
2012-06-15 06:39 51°23.378 2°51.305 -999 270 15 100940 51
2012-06-15 06:40 51°23.568 2°51.266 -999 267 15.1 100940 52
2012-06-15 06:41 51°23.76 2°51.245 -999 264 15.1 100950 52
2012-06-15 06:42 51°23.954 2°51.236 -999 267 15.1 100960 50
2012-06-15 06:43 51°24.148 2°51.217 -999 26 15 100950 52
2012-06-15 06:44 51°24.345 2°51.204 -999 258 15.1 100950 52
2012-06-15 06:45 51°24.542 2°51.192 -999 265 15.1 100940 52
2012-06-15 06:46 51°24.736 2°51.156 -999 262 15.1 100950 52
2012-06-15 06:47 51°24.932 2°51.136 0.2 267 15 100940 51
2012-06-15 06:48 51°25.13 2°51.131 -999 266 15 100940 52
2012-06-15 06:49 51°25.326 2°51.131 -999 24 15 100950 52
2012-06-15 06:50 51°25.523 2°51.154 -999 269 15 100940 50
2012-06-15 06:51 51°25.723 2°51.184 -999 29 15 100940 52
2012-06-15 06:52 51°25.925 2°51.19 -999 269 15 100950 52
2012-06-15 06:53 51°26.126 2°51.195 -999 263 15 100950 52
2012-06-15 06:54 51°26.325 2°51.208 -999 268 15 100940 52
2012-06-15 06:55 51°26.526 2°51.211 -999 259 15.1 100940 51
2012-06-15 06:56 51°26.727 2°51.234 -999 26 15.1 100940 52
2012-06-15 06:57 51°26.927 2°51.259 -999 270 15 100940 51
2012-06-15 06:58 51°27.124 2°51.263 -999 25 15 100930 51
2012-06-15 06:59 51°27.32 2°51.273 -999 27 15 100940 52
2012-06-15 07:00 51°27.515 2°51.288 -999 25 15 100940 52
2012-06-15 07:01 51°27.708 2°51.257 -999 263 15 100930 52
2012-06-15 07:02 51°27.896 2°51.169 0.1 259 15 100930 52
2012-06-15 07:03 51°28.087 2°51.088 -999 260 15 100930 52
2012-06-15 07:04 51°28.278 2°51.016 -999 256 15 100940 52
2012-06-15 07:05 51°28.473 2°50.952 -999 261 15 100940 52
2012-06-15 07:06 51°28.67 2°50.907 -999 266 15 100940 50
2012-06-15 07:07 51°28.867 2°50.866 -999 30 15 100930 52
2012-06-15 07:08 51°29.068 2°50.886 -999 24 14.9 100940 52
2012-06-15 07:09 51°29.265 2°50.953 -999 24 15 100930 52
2012-06-15 07:10 51°29.461 2°51.015 -999 25 15 100930 52
2012-06-15 07:11 51°29.659 2°51.059 -999 25 15 100940 52
2012-06-15 07:12 51°29.859 2°51.09 -999 25 15 100960 52
2012-06-15 07:13 51°30.055 2°51.146 -999 24 15 100950 52
2012-06-15 07:14 51°30.249 2°51.23 -999 25 15 100950 51
2012-06-15 07:15 51°30.439 2°51.31 -999 25 15 100960 52
2012-06-15 07:16 51°30.63 2°51.375 -999 24 15 100950 52
2012-06-15 07:17 51°30.823 2°51.443 -999 24 15.1 100960 52
2012-06-15 07:18 51°31.016 2°51.499 -999 25 15 100950 52
2012-06-15 07:19 51°31.21 2°51.561 -999 25 15 100950 52
2012-06-15 07:20 51°31.404 2°51.629 -999 24 15 100950 51
2012-06-15 07:21 51°31.597 2°51.698 -999 24 15 100940 52
2012-06-15 07:22 51°31.792 2°51.77 -999 25 15 100950 50
2012-06-15 07:23 51°31.989 2°51.824 -999 25 15 100940 51
2012-06-15 07:24 51°32.187 2°51.883 -999 25 15 100950 52
2012-06-15 07:25 51°32.384 2°51.955 -999 24 15 100950 52
2012-06-15 07:26 51°32.581 2°52.036 -999 25 15 100950 52
2012-06-15 07:27 51°32.78 2°52.114 -999 43 15 100940 52
2012-06-15 07:28 51°32.954 2°52.281 -999 30 15 100940 52
2012-06-15 07:29 51°33.1 2°52.515 -999 19 15 100940 51
2012-06-15 07:30 51°33.234 2°52.764 -999 25 14.9 100940 50
2012-06-15 07:31 51°33.369 2°53.016 -999 27 14.9 100950 52
2012-06-15 07:32 51°33.498 2°53.273 -999 17 14.9 100950 52
2012-06-15 07:33 51°33.621 2°53.54 -999 22 14.9 100960 52
2012-06-15 07:34 51°33.742 2°53.813 -999 25 14.9 100960 52
2012-06-15 07:35 51°33.838 2°54.108 -999 15 14.8 100950 52
2012-06-15 07:36 51°33.876 2°54.428 -999 5 14.8 100940 52
2012-06-15 07:37 51°33.828 2°54.738 -999 355 14.8 100930 52
2012-06-15 07:38 51°33.716 2°55.005 -999 350 14.8 100920 51
2012-06-15 07:39 51°33.598 2°55.265 -999 355 14.7 100930 52
2012-06-15 07:40 51°33.526 2°55.524 -999 359 14.7 100930 52
2012-06-15 07:41 51°33.48 2°55.753 -999 7 14.7 100950 52
2012-06-15 07:42 51°33.444 2°55.947 -999 4 14.8 100950 52
2012-06-15 07:43 51°33.402 2°56.121 -999 357 14.8 100950 52
2012-06-15 07:44 51°33.333 2°56.165 -999 325 14.7 100950 52
2012-06-15 07:45 51°33.312 2°56.111 -999 24 14.8 100950 52
2012-06-15 07:46 51°33.321 2°56.077 -999 24 14.8 100950 51
2012-06-15 07:47 51°33.331 2°56.06 -999 24 14.8 100950 52
2012-06-15 07:48 51°33.341 2°56.054 -999 24 14.9 100940 52
2012-06-15 07:49 51°33.354 2°56.053 -999 247 14.9 100940 52
2012-06-15 07:50 51°33.364 2°56.042 -999 24 14.9 100960 52
2012-06-15 07:51 51°33.375 2°56.026 -999 24 14.9 100940 52
2012-06-15 07:52 51°33.385 2°56.009 -999 24 14.9 100960 52
2012-06-15 07:53 51°33.38 2°55.978 -999 326 14.9 100940 52
2012-06-15 07:54 51°33.339 2°55.97 -999 338 14.9 100950 51
2012-06-15 07:55 51°33.278 2°55.964 -999 335 14.9 100950 52
2012-06-15 07:56 51°33.229 2°55.96 -999 338 14.8 100950 52
2012-06-15 07:57 51°33.204 2°55.973 -999 349 14.8 100950 52
2012-06-15 07:58 51°33.193 2°55.996 -999 352 14.8 100950 52
2012-06-15 07:59 51°33.193 2°56.022 -999 356 14.8 100950 52
2012-06-15 08:00 51°33.174 2°56.042 6.7 333 14.8 100950 51
2012-06-15 08:01 51°33.164 2°56.016 7.2 21 14.8 100940 52
2012-06-15 08:02 51°33.178 2°55.993 8.8 256 14.9 100960 51
2012-06-15 08:03 51°33.204 2°55.969 7.2 256 14.9 100960 52
2012-06-15 08:04 51°33.236 2°55.937 7.8 256 14.9 100950 51
2012-06-15 08:05 51°33.265 2°55.91 8.9 259 14.9 100950 52
2012-06-15 08:06 51°33.288 2°55.9 8.5 255 14.9 100950 52
2012-06-15 08:07 51°33.307 2°55.899 8.9 256 14.9 100950 52
2012-06-15 08:08 51°33.326 2°55.904 7.1 253 14.9 100970 52
2012-06-15 08:09 51°33.343 2°55.911 7.6 252 14.9 100970 52
2012-06-15 08:10 51°33.376 2°55.891 5.7 27 14.9 100960 51
2012-06-15 08:11 51°33.436 2°55.939 5.6 32 14.9 100980 52
2012-06-15 08:12 51°33.45 2°56.033 7 17 14.9 100970 52
2012-06-15 08:13 51°33.438 2°56.105 7.4 357 14.8 100980 52
2012-06-15 08:14 51°33.393 2°56.123 9.2 335 14.8 100960 52
2012-06-15 08:15 51°33.321 2°56.089 11.2 332 14.8 100960 52
2012-06-15 08:16 51°33.254 2°56.053 11.7 333 14.8 100970 52
2012-06-15 08:17 51°33.211 2°56.06 8.8 354 14.8 100960 52
2012-06-15 08:18 51°33.199 2°56.104 6.2 7 14.8 100970 51
2012-06-15 08:19 51°33.2 2°56.148 6.9 6 14.8 100980 52
2012-06-15 08:20 51°33.205 2°56.184 5.4 4 14.7 100980 52
2012-06-15 08:21 51°33.215 2°56.217 6.3 4 14.7 100970 52
2012-06-15 08:22 51°33.228 2°56.248 6.5 8 14.7 100980 53
2012-06-15 08:23 51°33.245 2°56.277 6.4 19 14.7 100970 52
2012-06-15 08:24 51°33.263 2°56.303 7.3 24 14.7 100980 53
2012-06-15 08:25 51°33.265 2°56.353 7.4 355 14.7 100960 53
2012-06-15 08:26 51°33.226 2°56.368 8.4 325 14.7 100980 52
2012-06-15 08:27 51°33.194 2°56.32 9 321 14.7 100950 53
2012-06-15 08:28 51°33.167 2°56.274 7.4 321 14.7 100980 53
2012-06-15 08:29 51°33.154 2°56.252 7.8 324 14.7 100980 52
2012-06-15 08:30 51°33.151 2°56.246 7.5 326 14.7 100990 53
2012-06-15 08:31 51°33.153 2°56.248 8.5 325 14.7 101000 53
2012-06-15 08:32 51°33.158 2°56.255 6.7 330 14.7 100990 52
2012-06-15 08:33 51°33.166 2°56.265 6.5 329 14.7 100990 52
2012-06-15 08:34 51°33.177 2°56.274 7.4 324 14.7 100980 51
2012-06-15 08:35 51°33.194 2°56.282 9.6 29 14.8 100990 52
2012-06-15 08:36 51°33.215 2°56.291 8.1 26 14.8 100990 51
2012-06-15 08:37 51°33.236 2°56.292 10.9 25 14.8 101010 51
2012-06-15 08:38 51°33.255 2°56.286 8.7 22 14.8 100990 51
2012-06-15 08:39 51°33.27 2°56.281 9 318 14.8 101000 51
2012-06-15 08:40 51°33.28 2°56.281 11.7 328 14.9 101010 51
2012-06-15 08:41 51°33.288 2°56.286 8.4 328 14.9 101010 51
2012-06-15 08:42 51°33.296 2°56.294 7.2 332 14.9 101020 50
2012-06-15 08:43 51°33.304 2°56.306 7.2 333 14.9 101020 51
2012-06-15 08:44 51°33.296 2°56.297 8.7 329 14.9 101020 51
2012-06-15 08:45 51°33.257 2°56.252 9.6 332 14.9 101010 51
2012-06-15 08:46 51°33.21 2°56.201 9.9 329 14.9 101010 51
2012-06-15 08:47 51°33.185 2°56.17 8.8 332 14.9 101010 51
2012-06-15 08:48 51°33.174 2°56.155 7.7 328 14.9 101000 51
2012-06-15 08:49 51°33.17 2°56.148 7.5 329 14.9 101010 51
2012-06-15 08:50 51°33.169 2°56.147 7 330 14.9 101010 50
2012-06-15 08:51 51°33.172 2°56.151 6.4 333 14.9 101010 51
2012-06-15 08:52 51°33.178 2°56.157 6.2 326 14.9 101010 51
2012-06-15 08:53 51°33.186 2°56.165 6.5 327 14.9 101000 51
2012-06-15 08:54 51°33.193 2°56.171 7.8 331 14.9 101000 52
2012-06-15 08:55 51°33.185 2°56.184 6.1 350 14.8 101000 51
2012-06-15 08:56 51°33.182 2°56.232 8.7 17 14.8 100990 52
2012-06-15 08:57 51°33.196 2°56.29 6.1 28 14.8 101010 52
2012-06-15 08:58 51°33.213 2°56.346 4.4 28 14.8 101020 51
2012-06-15 08:59 51°33.229 2°56.392 5.7 25 14.8 101010 52
2012-06-15 09:00 51°33.248 2°56.426 5.7 22 14.8 101010 52
2012-06-15 09:01 51°33.273 2°56.443 6 29 14.8 101010 52
2012-06-15 09:02 51°33.3 2°56.435 5.4 40 14.8 101020 52
2012-06-15 09:03 51°33.316 2°56.415 6.4 43 14.8 101010 52
2012-06-15 09:04 51°33.362 2°56.445 4.5 269 14.8 101030 52
2012-06-15 09:05 51°33.437 2°56.378 7.4 25 14.8 101030 52
2012-06-15 09:06 51°33.547 2°56.193 9.1 25 14.9 101020 51
2012-06-15 09:07 51°33.683 2°55.963 10.4 27 14.9 101010 52
2012-06-15 09:08 51°33.787 2°55.709 13.6 24 14.9 101020 52
2012-06-15 09:09 51°33.839 2°55.421 8.6 27 14.8 101000 52
2012-06-15 09:10 51°33.879 2°55.13 10.9 24 14.8 101010 52
2012-06-15 09:11 51°33.925 2°54.843 12.1 21 14.8 101000 52
2012-06-15 09:12 51°33.915 2°54.563 5.7 321 14.8 101000 52
2012-06-15 09:13 51°33.878 2°54.289 9.6 320 14.8 101000 52
2012-06-15 09:14 51°33.842 2°54.016 10.7 322 14.9 101000 51
2012-06-15 09:15 51°33.786 2°53.751 9.6 321 14.9 101000 52
2012-06-15 09:16 51°33.726 2°53.491 12.8 320 14.8 101020 51
2012-06-15 09:17 51°33.672 2°53.226 9.3 322 14.8 101000 52
2012-06-15 09:18 51°33.591 2°52.987 12.1 326 14.8 101010 52
2012-06-15 09:19 51°33.498 2°52.757 12.4 323 14.8 101000 52
2012-06-15 09:20 51°33.407 2°52.523 11 327 14.8 101000 52
2012-06-15 09:21 51°33.266 2°52.373 11.6 332 14.8 101010 52
2012-06-15 09:22 51°33.099 2°52.297 10.8 336 14.8 101010 51
2012-06-15 09:23 51°32.922 2°52.268 13.8 337 14.8 101010 52
2012-06-15 09:24 51°32.741 2°52.273 11.5 336 14.8 101010 52
2012-06-15 09:25 51°32.561 2°52.268 12.3 336 14.8 101020 52
2012-06-15 09:26 51°32.382 2°52.246 12.2 335 14.8 101010 52
2012-06-15 09:27 51°32.203 2°52.213 9.3 337 14.8 101010 53
2012-06-15 09:28 51°32.022 2°52.19 12.4 336 14.8 101010 53
2012-06-15 09:29 51°31.842 2°52.178 5.3 336 14.8 101010 53
2012-06-15 09:30 51°31.661 2°52.149 15.8 334 14.8 101010 52
2012-06-15 09:31 51°31.48 2°52.116 10.7 336 14.8 101000 53
2012-06-15 09:32 51°31.301 2°52.081 12.1 333 14.8 101010 53
2012-06-15 09:33 51°31.12 2°52.047 13.3 335 14.8 101010 53
2012-06-15 09:34 51°30.938 2°52.036 13.3 337 14.8 101000 54
2012-06-15 09:35 51°30.756 2°52.036 13.1 336 14.8 101010 53
2012-06-15 09:36 51°30.572 2°52.035 10.3 337 14.8 101000 53
2012-06-15 09:37 51°30.39 2°52.02 5.7 337 14.8 101000 53
2012-06-15 09:38 51°30.208 2°52.008 13.9 336 14.8 101010 52
2012-06-15 09:39 51°30.025 2°52.029 10.5 341 14.8 101000 53
2012-06-15 09:40 51°29.844 2°52.034 13.3 338 14.8 101000 53
2012-06-15 09:41 51°29.662 2°52.022 10.1 340 14.9 100990 53
2012-06-15 09:42 51°29.479 2°52.02 11.6 338 14.9 101000 52
2012-06-15 09:43 51°29.299 2°52.025 9.4 340 14.9 101000 52
2012-06-15 09:44 51°29.116 2°52.033 12 340 14.9 100990 52
2012-06-15 09:45 51°28.937 2°52.018 12 339 15 101000 52
2012-06-15 09:46 51°28.754 2°52.006 10 340 15 101000 51
2012-06-15 09:47 51°28.572 2°51.99 11.1 341 15 101000 52
2012-06-15 09:48 51°28.391 2°51.977 14.2 340 15 101000 52
2012-06-15 09:49 51°28.21 2°51.971 9.7 341 15 100990 52
2012-06-15 09:50 51°28.026 2°51.983 13.6 339 15 101000 53
2012-06-15 09:51 51°27.844 2°51.988 11.2 337 15 101000 52
2012-06-15 09:52 51°27.663 2°51.985 9.9 337 15 101010 53
2012-06-15 09:53 51°27.483 2°51.984 12.4 338 15 101000 52
2012-06-15 09:54 51°27.301 2°51.987 14.8 338 15 101000 51
2012-06-15 09:55 51°27.119 2°51.988 11.4 338 15.1 101000 52
2012-06-15 09:56 51°26.939 2°51.986 11.5 338 15.1 101010 52
2012-06-15 09:57 51°26.755 2°51.975 12 338 15.1 101010 53
2012-06-15 09:58 51°26.573 2°51.947 12.4 338 15.1 101010 53
2012-06-15 09:59 51°26.39 2°51.917 11.3 338 15.1 101010 53
2012-06-15 10:00 51°26.206 2°51.897 13.8 338 15.1 101020 53
2012-06-15 10:01 51°26.022 2°51.895 12.6 338 15.1 101010 53
2012-06-15 10:02 51°25.837 2°51.891 8.4 337 15.1 101020 52
2012-06-15 10:03 51°25.656 2°51.879 9.9 338 15.1 101010 54
2012-06-15 10:04 51°25.473 2°51.867 11.9 338 15.1 101010 53
2012-06-15 10:05 51°25.293 2°51.836 9.4 338 15.1 101020 53
2012-06-15 10:06 51°25.113 2°51.81 10.3 337 15.1 101010 54
2012-06-15 10:07 51°24.931 2°51.791 11.5 339 15.1 101010 53
2012-06-15 10:08 51°24.747 2°51.79 12.6 337 15.1 101020 53
2012-06-15 10:09 51°24.566 2°51.754 12.6 337 15.1 101020 53
2012-06-15 10:10 51°24.384 2°51.731 11.5 339 15.1 101020 52
2012-06-15 10:11 51°24.2 2°51.715 12.3 339 15.1 101020 53
2012-06-15 10:12 51°24.015 2°51.701 11.4 339 15.1 101030 53
2012-06-15 10:13 51°23.831 2°51.66 12.1 338 15 101020 53
2012-06-15 10:14 51°23.648 2°51.616 10.8 340 15.1 101020 53
2012-06-15 10:15 51°23.464 2°51.589 8.7 341 15.1 101010 53
2012-06-15 10:16 51°23.279 2°51.572 11.2 341 15.1 101010 52
2012-06-15 10:17 51°23.095 2°51.544 8.3 341 15.1 101000 52
2012-06-15 10:18 51°22.912 2°51.498 11.9 339 15.1 101000 51
2012-06-15 10:19 51°22.729 2°51.466 8.8 337 15.1 101010 52
2012-06-15 10:20 51°22.55 2°51.423 8.8 340 15.1 101000 52
2012-06-15 10:21 51°22.366 2°51.4 12.3 342 15.1 101000 52
2012-06-15 10:22 51°22.186 2°51.383 11.9 341 15.2 101000 52
2012-06-15 10:23 51°22.01 2°51.342 10.8 340 15.2 101000 52
2012-06-15 10:24 51°21.83 2°51.308 8.7 344 15.2 101010 52
2012-06-15 10:25 51°21.651 2°51.272 8.8 342 15.2 101000 52
2012-06-15 10:26 51°21.472 2°51.239 9.4 340 15.2 101000 50
2012-06-15 10:27 51°21.293 2°51.198 9 342 15.2 101000 51
2012-06-15 10:28 51°21.112 2°51.179 10.1 342 15.3 101010 51
2012-06-15 10:29 51°20.929 2°51.172 12.1 341 15.3 101010 51
2012-06-15 10:30 51°20.747 2°51.141 8.1 341 15.3 101020 52
2012-06-15 10:31 51°20.564 2°51.111 9.1 342 15.3 101010 52
2012-06-15 10:32 51°20.382 2°51.07 11.4 339 15.3 101010 51
2012-06-15 10:33 51°20.199 2°51.035 9 343 15.3 101000 51
2012-06-15 10:34 51°20.015 2°51.003 12.4 341 15.3 101000 51
2012-06-15 10:35 51°19.833 2°50.946 9.2 342 15.3 101010 51
2012-06-15 10:36 51°19.647 2°50.909 9.1 344 15.3 101000 51
2012-06-15 10:37 51°19.463 2°50.864 13.2 339 15.3 101010 51
2012-06-15 10:38 51°19.284 2°50.78 10.5 340 15.3 101000 52
2012-06-15 10:39 51°19.101 2°50.71 13.4 344 15.3 101000 51
2012-06-15 10:40 51°18.917 2°50.652 11.4 344 15.3 101000 51
2012-06-15 10:41 51°18.732 2°50.609 8.8 344 15.3 101000 51
2012-06-15 10:42 51°18.55 2°50.549 12.5 343 15.2 101000 50
2012-06-15 10:43 51°18.369 2°50.487 8.6 341 15.3 101010 51
2012-06-15 10:44 51°18.188 2°50.431 10.1 345 15.3 101010 51
2012-06-15 10:45 51°18.009 2°50.363 10.3 342 15.3 101020 51
2012-06-15 10:46 51°17.827 2°50.303 9.4 345 15.3 101020 51
2012-06-15 10:47 51°17.647 2°50.227 8.8 343 15.3 101020 51
2012-06-15 10:48 51°17.466 2°50.154 11 344 15.3 101020 51
2012-06-15 10:49 51°17.281 2°50.109 10.9 344 15.3 101020 51
2012-06-15 10:50 51°17.101 2°50.05 9.1 346 15.3 101010 50
2012-06-15 10:51 51°16.924 2°49.982 14.7 343 15.3 101020 51
2012-06-15 10:52 51°16.752 2°49.884 9.6 342 15.3 101020 51
2012-06-15 10:53 51°16.575 2°49.795 10.3 342 15.4 101020 50
2012-06-15 10:54 51°16.394 2°49.726 11.1 344 15.4 101020 50
2012-06-15 10:55 51°16.215 2°49.641 11.6 343 15.4 101030 51
2012-06-15 10:56 51°16.039 2°49.548 9.2 343 15.4 101010 50
2012-06-15 10:57 51°15.854 2°49.482 12.8 346 15.5 101020 50
2012-06-15 10:58 51°15.669 2°49.412 9.2 343 15.5 101020 49
2012-06-15 10:59 51°15.493 2°49.332 9 344 15.5 101020 50
2012-06-15 11:00 51°15.407 2°49.278 5.6 351 15.5 101020 50
2012-06-15 11:01 51°15.356 2°49.306 6 15 15.5 101040 50
2012-06-15 11:02 51°15.343 2°49.396 3.1 29 15.5 101050 50
2012-06-15 11:03 51°15.326 2°49.496 4.8 20 15.5 101050 50
2012-06-15 11:04 51°15.294 2°49.585 4.3 12 15.5 101060 50
2012-06-15 11:05 51°15.253 2°49.664 5.9 10 15.5 101060 49
2012-06-15 11:06 51°15.206 2°49.735 5.6 8 15.5 101050 48
2012-06-15 11:07 51°15.161 2°49.818 4.7 13 15.5 101050 50
2012-06-15 11:08 51°15.124 2°49.913 4.3 17 15.5 101060 50
2012-06-15 11:09 51°15.09 2°50.012 4.3 18 15.5 101060 50
2012-06-15 11:10 51°15.053 2°50.101 -999 19 15.6 101070 50
2012-06-15 11:11 51°15.012 2°50.185 -999 16 15.6 101070 50
2012-06-15 11:12 51°14.967 2°50.259 -999 13 15.6 101070 50
2012-06-15 11:13 51°14.92 2°50.328 -999 8 15.5 101070 50
2012-06-15 11:14 51°14.871 2°50.388 -999 12 15.5 101080 49
2012-06-15 11:15 51°14.825 2°50.456 -999 20 15.5 101070 50
2012-06-15 11:16 51°14.786 2°50.54 -999 26 15.5 101080 50
2012-06-15 11:17 51°14.749 2°50.63 -999 17 15.5 101080 51
2012-06-15 11:18 51°14.709 2°50.714 -999 20 15.5 101080 51
2012-06-15 11:19 51°14.665 2°50.792 -999 10 15.6 101080 50
2012-06-15 11:20 51°14.615 2°50.846 -999 7 15.6 101080 50
2012-06-15 11:21 51°14.561 2°50.884 -999 3 15.6 101070 49
2012-06-15 11:22 51°14.508 2°50.913 -999 359 15.6 101070 47
2012-06-15 11:23 51°14.453 2°50.934 -999 357 15.7 101070 47
2012-06-15 11:24 51°14.398 2°50.929 -999 349 15.8 101070 45
2012-06-15 11:25 51°14.346 2°50.906 -999 343 15.8 101070 45
2012-06-15 11:26 51°14.3 2°50.865 -999 337 16 101070 44
2012-06-15 11:27 51°14.268 2°50.799 -999 327 16.1 101070 44
2012-06-15 11:28 51°14.265 2°50.723 -999 315 16.1 101070 43
2012-06-15 11:29 51°14.284 2°50.675 -999 25 16.2 101070 43
2012-06-15 11:30 51°14.304 2°50.645 -999 25 16.2 101060 42
2012-06-15 11:31 51°14.335 2°50.612 -999 255 16.3 101070 43
2012-06-15 11:32 51°14.39 2°50.627 -999 25 16.3 101090 43
2012-06-15 11:33 51°14.412 2°50.723 -999 31 16.3 101100 43
2012-06-15 11:34 51°14.385 2°50.821 7 18 16.3 101100 43
2012-06-15 11:35 51°14.344 2°50.887 8.1 9 16.2 101100 43
2012-06-15 11:36 51°14.299 2°50.932 6.4 3 16.2 101100 44
2012-06-15 11:37 51°14.254 2°50.961 8.3 354 16.2 101080 42
2012-06-15 11:38 51°14.207 2°50.942 8.2 340 16.2 101080 42
2012-06-15 11:39 51°14.162 2°50.892 7.9 336 16.2 101090 44
2012-06-15 11:40 51°14.137 2°50.833 9 325 16.2 101090 44
2012-06-15 11:41 51°14.126 2°50.772 11.1 327 16.2 101080 44
2012-06-15 11:42 51°14.11 2°50.705 11.1 328 16.3 101080 43
2012-06-15 11:43 51°14.089 2°50.637 8.5 329 16.4 101080 42
2012-06-15 11:44 51°14.066 2°50.568 8.2 327 16.4 101070 43
2012-06-15 11:45 51°14.044 2°50.498 7.4 326 16.4 101080 43
2012-06-15 11:46 51°14.027 2°50.422 9.8 326 16.4 101080 43
2012-06-15 11:47 51°14.01 2°50.345 8.7 324 16.4 101070 42
2012-06-15 11:48 51°13.99 2°50.27 8.3 329 16.5 101070 42
2012-06-15 11:49 51°13.971 2°50.195 9.7 328 16.5 101070 43
2012-06-15 11:50 51°13.949 2°50.121 7.7 327 16.5 101080 43
2012-06-15 11:51 51°13.926 2°50.048 9.9 328 16.5 101070 43
2012-06-15 11:52 51°13.904 2°49.972 9.2 328 16.5 101070 43
2012-06-15 11:53 51°13.885 2°49.895 7.2 325 16.5 101070 42
2012-06-15 11:54 51°13.871 2°49.815 9.1 319 16.6 101060 41
2012-06-15 11:55 51°13.869 2°49.73 9.5 316 16.6 101060 42
2012-06-15 11:56 51°13.876 2°49.644 10.2 23 16.6 101070 42
2012-06-15 11:57 51°13.902 2°49.563 10.6 23 16.6 101080 42
2012-06-15 11:58 51°13.942 2°49.49 9.5 29 16.6 101080 43
2012-06-15 11:59 51°13.995 2°49.446 9.4 259 16.6 101090 43
2012-06-15 12:00 51°14.053 2°49.446 5.7 28 16.6 101100 43
2012-06-15 12:01 51°14.106 2°49.503 2.2 29 16.5 101100 43
2012-06-15 12:02 51°14.143 2°49.596 -999 25 16.6 101080 41
2012-06-15 12:03 51°14.173 2°49.701 -999 25 16.6 101080 43
2012-06-15 12:04 51°14.201 2°49.801 -999 25 16.5 101080 43
2012-06-15 12:05 51°14.232 2°49.896 -999 25 16.5 101080 43
2012-06-15 12:06 51°14.267 2°49.988 -999 24 16.4 101080 43
2012-06-15 12:07 51°14.296 2°50.082 -999 25 16.4 101080 43
2012-06-15 12:08 51°14.312 2°50.18 -999 38 16.4 101070 43
2012-06-15 12:09 51°14.313 2°50.275 -999 34 16.4 101070 44
2012-06-15 12:10 51°14.302 2°50.364 -999 25 16.4 101070 43
2012-06-15 12:11 51°14.277 2°50.439 7.9 9 16.4 101070 44
2012-06-15 12:12 51°14.249 2°50.48 9.3 10 16.4 101060 43
2012-06-15 12:13 51°14.234 2°50.51 9.5 11 16.5 101060 43
2012-06-15 12:14 51°14.226 2°50.534 7.4 14 16.5 101070 43
2012-06-15 12:15 51°14.212 2°50.579 6.4 33 16.5 101080 43
2012-06-15 12:16 51°14.223 2°50.668 5.4 23 16.5 101080 44
2012-06-15 12:17 51°14.247 2°50.784 -999 25 16.5 101080 44
2012-06-15 12:18 51°14.273 2°50.914 -999 25 16.5 101080 43
2012-06-15 12:19 51°14.305 2°51.045 4.3 20 16.5 101080 44
2012-06-15 12:20 51°14.343 2°51.173 -999 25 16.6 101080 45
2012-06-15 12:21 51°14.381 2°51.3 -999 25 16.5 101080 44
2012-06-15 12:22 51°14.419 2°51.429 3.5 25 16.5 101080 44
2012-06-15 12:23 51°14.453 2°51.562 0.1 44 16.5 101080 45
2012-06-15 12:24 51°14.482 2°51.697 -999 45 16.5 101080 45
2012-06-15 12:25 51°14.516 2°51.829 -999 25 16.5 101080 45
2012-06-15 12:26 51°14.555 2°51.957 -999 25 16.5 101070 43
2012-06-15 12:27 51°14.593 2°52.085 -999 25 16.6 101070 45
2012-06-15 12:28 51°14.625 2°52.217 -999 25 16.6 101080 45
2012-06-15 12:29 51°14.655 2°52.351 -999 45 16.6 101080 46
2012-06-15 12:30 51°14.688 2°52.482 -999 25 16.6 101080 45
2012-06-15 12:31 51°14.726 2°52.61 -999 25 16.6 101070 46
2012-06-15 12:32 51°14.763 2°52.739 -999 25 16.6 101060 46
2012-06-15 12:33 51°14.793 2°52.872 -999 26 16.6 101060 45
2012-06-15 12:34 51°14.819 2°52.99 -999 25 16.7 101060 44
2012-06-15 12:35 51°14.841 2°53.068 -999 25 16.7 101060 46
2012-06-15 12:36 51°14.862 2°53.12 -999 25 16.6 101060 46
2012-06-15 12:37 51°14.88 2°53.162 -999 26 16.7 101060 47
2012-06-15 12:38 51°14.907 2°53.217 -999 25 16.8 101060 43
2012-06-15 12:39 51°14.916 2°53.379 -999 23 17 101060 43
2012-06-15 12:40 51°14.919 2°53.656 0.1 19 17 101060 43
2012-06-15 12:41 51°14.899 2°53.975 -999 9 17.1 101060 43
2012-06-15 12:42 51°14.855 2°54.288 -999 8 17 101060 42
2012-06-15 12:43 51°14.78 2°54.585 -999 4 17 101040 42
2012-06-15 12:44 51°14.673 2°54.834 11.1 6 17.1 101030 40
2012-06-15 12:45 51°14.541 2°55.025 8.8 3 17.2 101030 38
2012-06-15 12:46 51°14.417 2°55.162 8.7 2 17.3 101040 38
2012-06-15 12:47 51°14.303 2°55.257 8.8 358 17.4 101060 38
2012-06-15 12:48 51°14.184 2°55.359 4.5 340 17.6 101060 38
2012-06-15 12:49 51°14.064 2°55.449 6.9 346 17.9 101050 36
2012-06-15 12:50 51°13.968 2°55.525 6.9 356 18.1 101070 35
2012-06-15 12:51 51°13.863 2°55.603 6.7 333 18.2 101070 34
2012-06-15 12:52 51°13.771 2°55.697 8.9 349 18.3 101060 34
2012-06-15 12:53 51°13.706 2°55.803 4.9 11 18.3 101060 34
2012-06-15 12:54 51°13.654 2°55.91 2.9 8 18.3 101070 34
2012-06-15 12:55 51°13.628 2°55.994 0.1 19 18.4 101070 34
2012-06-15 12:56 51°13.618 2°56.058 4.7 7 18.4 101070 35
2012-06-15 12:57 51°13.615 2°56.066 7.6 15 18.4 101060 34